Regional Weather Roundup
Issued by NWS San Diego, CA

Home | Current Version | Previous Version | Text Only | Print | Product List | Glossary On
Versions: 1 2 3 4 5 6 7 8 9 10 11 12 13 14 15 16 17 18 19 20 21 22 23 24 25 26 27 28 29 30 31 32 33 34 35 36 37 38 39 40 41 42 43 44 45 46 47 48 49 50
000
ASUS46 KSGX 272211
RWRSGX

SAN DIEGO HOURLY WEATHER ROUNDUP
NATIONAL WEATHER SERVICE SAN DIEGO CA
300 PM PDT WED MAY 27 2015

NOTE: "FAIR" INDICATES FEW OR NO CLOUDS BELOW 12,000 FEET WITH NO
SIGNIFICANT WEATHER AND/OR OBSTRUCTIONS TO VISIBILITY.

CAZ042-043-060-061-PZZ750-775-272300-

GREATER SAN DIEGO AREA

CITY           SKY/WX    TMP DP  RH WIND       PRES   REMARKS
LINDBERGH FLD  PTSUNNY   68  53  58 NW7G16    30.00F
POINT LOMA       N/A     68  54  61 W16         N/A
NATIONAL CITY    N/A     69  59  69 W8        29.99F
CHULA VISTA      N/A     67  59  73 W12       29.92S
IMPERIAL BEACH MOSUNNY   67  56  67 W14       29.99F
BROWN FIELD    MOSUNNY   67  56  67 W12       29.98F
MIRAMAR MCAS   PTSUNNY   70  53  54 NW9       29.98F
MONTGOMERY FLD PTSUNNY   68  54  60 W7        29.98F

$$

NORTH SAN DIEGO COUNTY

CITY           SKY/WX    TMP DP  RH WIND       PRES   REMARKS
CAMP PENDLETON MOSUNNY   70  54  56 SW9G16    29.97F
OCEANSIDE AP   SUNNY     70  54  56 W13       29.96F
OCEANSIDE HBR    N/A     64  57  76 SW12      30.00F
VISTA            N/A     68  57  68 W2        29.96S
CARLSBAD       MOSUNNY   66  54  65 W8        29.97F
DEL MAR          N/A     69  58  68 W1        30.00F
LA JOLLA SCRIP   N/A    N/A N/A N/A W3        29.97F
FALLBROOK        N/A     72  58  61 S6        29.95F
ESCONDIDO        N/A     72  58  61 W2        29.98F
SAN MARCOS       N/A     67  57  71 SW8       29.96F
POWAY            N/A     71  58  63 N5        29.99S

$$

EAST SAN DIEGO COUNTY

CITY           SKY/WX    TMP DP  RH WIND       PRES   REMARKS
RAMONA         MOSUNNY   71  54  54 W9        29.97F
SANTEE LAKES     N/A     70  58  66 W3        29.97S
LA MESA          N/A     66  57  71 W5        29.92S
JAMUL            N/A     70  58  64 W5        29.97S
DESCANSO N       N/A     71  57  61 W6        29.84F
MT. LAGUNA OBS   N/A     64  43  46 E1        29.69
CAMPO            N/A     71  53  52 SW18      29.94S

$$

ORANGE COUNTY AND THE LOS ANGELES BASIN

CITY           SKY/WX    TMP DP  RH WIND       PRES   REMARKS
JOHN WAYNE AP  MOSUNNY   70  52  52 SW9       29.97F
LAKE FOREST FR   N/A     74  54  49 SW5       29.86F
SANTA ANA        N/A     76  59  56 CALM      29.91F
HUNTINGTON BCH   N/A     69  59  71 NW6       29.99F
LOS ALAMITOS   SUNNY     71  55  58 SW13      29.97F
FULLERTON      SUNNY     75  52  44 SW8       29.95F
LONG BEACH     SUNNY     72  53  51 SW10      29.97F
L.A. AP        MOSUNNY   66  54  65 W14       29.98F
L.A. DOWNTOWN  SUNNY     71  54  54 MISG      29.96F

$$

THE INLAND EMPIRE

CITY           SKY/WX    TMP DP  RH WIND       PRES   REMARKS
CORONA         SUNNY     77  54  44 W14       29.94F
CHINO          SUNNY     80  53  39 W10G18    29.95F
ONTARIO        SUNNY     78  52  40 W10       29.94F
SAN BERNARDINO SUNNY     77  45  31 SW8       29.94F HAZE
RIVERSIDE AP   SUNNY     78  53  41 NW7       29.94F
RIV CYN CREST    N/A     76  59  55 NW6         N/A
MORENO VALLEY    N/A     80  56  42 W2        29.93F
MARCH ARB      SUNNY     77  52  41 NW10      29.95F
HORSETHIEF CYN   N/A     77  52  41 W6        29.91F
PERRIS           N/A     77  55  45 W5          N/A
MENIFEE          N/A     82  56  41 SW3       29.97F
HEMET EAST       N/A     77  43  29 CALM      29.92F
FRENCH VALLEY  FAIR      75  54  46 S7        29.95F
TEMECULA         N/A     76  57  50 SW5       29.92F

$$

SAN BERNARDINO AND RIVERSIDE COUNTY MOUNTAINS

CITY           SKY/WX    TMP DP  RH WIND       PRES   REMARKS
BIG BEAR AP    SUNNY     66  30  26 NW7       30.15F
ANGELUS OAKS     N/A     67  42  39 CALM      29.84F
PINE COVE        N/A     65  45  47 W5        29.89S

$$

SOUTHERN DESERT INCLUDING THE COACHELLA VALLEY

CITY           SKY/WX    TMP DP  RH WIND       PRES   REMARKS
PALM SPRINGS   MOSUNNY   93  42  17 VRB6      29.84F
THOUSAND PALMS   N/A     95  46  18 CALM      29.82F
PALM DESERT      N/A     94  49  21 CALM      30.59R
THERMAL        SUNNY     94  41  16 S10       29.78F
BLYTHE         SUNNY     94  24   8 S9        29.82F
IMPERIAL AP    SUNNY     93  49  22 NE8       29.79F
EL CENTRO NAS  MOSUNNY   94  47  20 VRB5      29.81F
YUMA AZ        MOSUNNY   93  49  22 S9        29.82F
MEXICALI       SUNNY     91  37  15 S3        29.82F

$$

UPPER DESERT

CITY           SKY/WX    TMP DP  RH WIND       PRES   REMARKS
VICTORVILLE AP SUNNY     88  19   8 S14G22    29.93F
HESPERIA         N/A     84  32  15 W5        29.98S
APPLE VALLEY     N/A     85  19   9 SW9G20    29.96S
PALMDALE       SUNNY     87  38  17 SW15      29.92F
LANCASTER      SUNNY     86  36  16 SW18G24   29.91F
EDWARDS AFB    SUNNY     89  27  10 SW12      29.88F
DAGGETT        SUNNY     92  29  10 NE7       29.86F
29 PALMS N     MOSUNNY   90  39  16 E5        29.94F

$$

REGIONAL REPORTS

CITY           SKY/WX    TMP DP  RH WIND       PRES   REMARKS
SANTA BARBARA  SUNNY     67  51  56 W13       29.98F
SANDBERG       SUNNY     80  46  30 VRB5      30.06F
LAS VEGAS NV   MOSUNNY   91  32  12 S10G18    29.83F
PHOENIX AZ     PTSUNNY   96  31  10 S8        29.83F
TIJUANA        PTSUNNY   66  52  59 W12       30.01S
ENSENADA NW      N/A     65  32  29 W15       29.96F

$$

OFFSHORE ISLANDS

CITY           SKY/WX    TMP DP  RH WIND       PRES   REMARKS
CATALINA ARPT  SUNNY     60  52  74 W9        30.01S
SAN CLEMENTE I CLOUDY    59  51  75 W9        30.02F
SAN NICOLAS IS PTSUNNY  N/A N/A N/A NW18G25   30.00F

$$

MARINE AND OFFSHORE BUOY REPORTS

STATION/POSITION SKY/WX   TEMP    WIND        PRES    SWELL
                          AIR SEA DIR/SP/G            HT/PER/DIR
                          (F)     (DEG/KT/KT) (MB)    (FT/S/D)
TANNER BANKS               59 61  330/ 14/ 16 1017.0    5/280/17
S CLEMENTE BASIN           60 62  290/ 12/ 14 1016.3    5/260/17
SAN NICOLAS IS.               60                N/A     3/230/14
SO. S. ROSA ISLA           58 60  310/ 14/ 17 1016.2    5/15
W. S. BARBARA CH           56 57  310/ 16/ 17 1015.9    3/280/16
M. S. BARBARA CH           58 60  280/ 12/ 14 1016.4F
S. MONICA BASIN            60 63  280/  8/  8 1016.1    3/240/17
S PEDRO CHANNEL               63                N/A     2/200/14
TORREY PINES OTR              65                N/A     3/230/18
LA JOLLA 1                 63 65  290/  9/ 11 1015.6F
SAN DIEGO BAY                 66              1016.1F

$$




USA.gov is the U.S. government's official web portal to all federal, state and local government web resources and services.